Simultaneous Nadir Overpasses (SNOs) Predictions

Prediction of SNOs near US between AQUA and NPP Satellite Orbit:

Table of predicted SNOs near US for the next 10.0 days since TLE Epoch: 10/16/2021
Index Date (AQUA) Time (AQUA) AQUA Lat,Lon Date (NPP) Time (NPP) NPP Lat,Lon Distance(km) Time Diff (sec)
1 10/18/2021 09:23:00 25.40,-112.94 10/18/2021 09:16:09 25.49,-113.49 56.34 411
2 10/21/2021 06:30:19 46.24, -65.04 10/21/2021 06:31:34 46.69, -67.18 170.88 75
3 10/21/2021 08:08:10 49.93, -88.30 10/21/2021 08:11:59 50.44, -90.95 196.90 229
4 10/21/2021 09:47:03 49.93,-113.02 10/21/2021 09:53:26 50.61,-116.25 241.31 383
5 10/23/2021 19:06:18 49.94, -92.50 10/23/2021 19:02:19 49.57, -94.55 152.78 239
6 10/23/2021 20:45:11 49.94,-117.22 10/23/2021 20:43:47 49.45,-119.87 198.18 84
